GW0835 Weather Reports


Display with metric or nautical units.
time (UTC)temp
F
wind
direction
speed
MPH
gust
MPH
rain 1hr
in
rain 24hr
in
rain mn
in
humidity
%
barometer
mb
20260508063109 50 311 1.0 4.0 0.00 0.00 0.00 83 1016.8
20260508061609 50 315 1.0 5.0 0.00 0.00 0.00 83 1016.8
20260508060111 50 28 1.0 5.0 0.00 0.00 0.00 83 1016.5
20260508054559 50 5 2.0 6.0 0.00 0.00 0.00 83 1016.5
20260508053058 50 0 0.0 5.0 0.00 0.00 0.00 83 1016.5
20260508051609 50 311 3.0 5.0 0.00 0.00 0.00 83 1016.3
20260508050055 50 342 0.0 4.0 0.00 0.00 0.00 83 1016.3
20260508044552 49 0 1.0 3.0 0.00 0.00 0.00 83 1016.5
20260508043051 50 0 1.0 4.0 0.00 0.00 0.00 83 1016.4
20260508041555 50 333 1.0 5.0 0.00 0.00 0.00 83 1016.3
20260508040059 50 5 1.0 4.0 0.00 0.00 0.00 82 1016.1
20260508034554 50 360 2.0 8.0 0.00 0.00 0.00 83 1015.9
20260508033058 50 0 0.0 4.0 0.00 0.00 0.00 82 1015.9
20260508031558 50 5 1.0 4.0 0.00 0.00 0.00 82 1016.0
20260508024617 50 0 1.0 5.0 0.00 0.00 0.00 82 1015.7
20260508023058 50 46 2.0 6.0 0.00 0.00 0.00 82 1015.5
20260508021606 50 42 1.0 5.0 0.00 0.00 0.00 82 1015.6
20260508020057 50 27 1.0 3.0 0.00 0.00 0.00 82 1015.5
20260508014557 50 24 2.0 7.0 0.00 0.00 0.00 82 1015.6
20260508013051 50 5 2.0 6.0 0.00 0.00 0.00 82 1015.6
20260508011604 51 57 1.0 4.0 0.00 0.00 0.00 83 1015.6
20260508010057 51 355 2.0 6.0 0.00 0.00 0.00 83 1015.6
20260508004603 51 13 0.0 8.0 0.00 0.00 0.00 83 1015.6
20260508003052 51 40 2.0 5.0 0.00 0.00 0.00 83 1015.6
20260508001554 51 15 1.0 5.0 0.00 0.00 0.00 84 1015.5
20260508000057 51 22 0.0 3.0 0.00 0.00 0.00 84 1015.5
20260507234557 51 17 0.0 3.0 0.00 0.00 0.00 84 1015.4
20260507233100 51 0 0.0 3.0 0.00 0.00 0.00 85 1015.4
20260507231559 51 0 0.0 2.0 0.00 0.00 0.00 85 1015.7
20260507230108 51 0 0.0 4.0 0.00 0.00 0.00 84 1015.5
20260507224555 51 0 0.0 0.0 0.00 0.00 0.00 84 1015.3
20260507223050 51 318 0.0 3.0 0.00 0.00 0.00 83 1015.4
20260507221551 52 351 0.0 2.0 0.00 0.00 0.00 82 1015.2
20260507220059 52 32 1.0 7.0 0.00 0.00 0.00 82 1015.0
20260507214555 52 332 0.0 5.0 0.00 0.00 0.00 82 1015.0
20260507213055 52 17 1.0 4.0 0.00 0.00 0.00 82 1014.7
20260507211556 53 0 2.0 6.0 0.00 0.00 0.00 82 1014.7
20260507210108 53 352 0.0 4.0 0.00 0.00 0.00 82 1014.7
20260507204558 53 348 0.0 4.0 0.00 0.00 0.00 81 1014.5
20260507203115 53 42 2.0 5.0 0.00 0.00 0.00 80 1014.3
20260507201554 53 0 1.0 5.0 0.00 0.00 0.00 80 1014.6
20260507200100 53 5 1.0 4.0 0.00 0.00 0.00 81 1014.5
20260507194618 54 9 1.0 6.0 0.00 0.00 0.00 80 1014.5
20260507193058 54 324 2.0 5.0 0.00 0.00 0.00 80 1014.5
20260507191555 55 308 1.0 6.0 0.00 0.00 0.00 79 1014.4
20260507190057 55 348 2.0 8.0 0.00 0.00 0.00 79 1014.4
20260507184554 55 360 2.0 6.0 0.00 0.00 0.00 78 1014.1
20260507183056 56 18 2.0 4.0 0.00 0.00 0.00 78 1014.1
20260507181553 56 34 3.0 6.0 0.00 0.00 0.00 77 1013.9
20260507180058 57 5 2.0 6.0 0.00 0.00 0.00 77 1013.5
20260507174602 57 40 1.0 4.0 0.00 0.00 0.00 77 1013.2
20260507173129 57 352 2.0 8.0 0.00 0.00 0.00 76 1012.8
20260507171550 58 5 5.0 11.0 0.00 0.00 0.00 75 1012.3
20260507170054 59 5 3.0 8.0 0.00 0.00 0.00 74 1012.6
20260507164552 60 355 1.0 9.0 0.00 0.00 0.00 74 1012.2
20260507163051 61 34 3.0 8.0 0.00 0.00 0.00 73 1012.2
20260507161602 61 5 2.0 8.0 0.00 0.00 0.00 73 1012.4
20260507154557 62 319 2.0 7.0 0.00 0.00 0.00 72 1012.6
20260507153059 62 301 4.0 7.0 0.00 0.00 0.00 72 1012.4
20260507151552 63 26 2.0 8.0 0.00 0.00 0.00 72 1012.4
20260507150054 63 285 5.0 8.0 0.00 0.00 0.00 72 1012.3
20260507144600 63 286 3.0 8.0 0.00 0.00 0.00 72 1012.1
20260507143059 63 298 5.0 12.0 0.00 0.00 0.00 72 1011.9
20260507141559 64 288 4.0 8.0 0.00 0.00 0.00 72 1011.9
20260507140050 64 323 3.0 9.0 0.00 0.00 0.00 72 1012.0
20260507134553 64 281 3.0 7.0 0.00 0.00 0.00 72 1011.9
20260507133139 63 317 2.0 8.0 0.00 0.00 0.00 73 1011.9
20260507131550 64 5 3.0 10.0 0.00 0.00 0.00 71 1011.7
20260507130107 63 307 3.0 10.0 0.00 0.00 0.00 73 1011.8
20260507124601 63 292 4.0 14.0 0.00 0.00 0.00 73 1011.6
20260507123054 63 360 4.0 11.0 0.00 0.00 0.00 73 1011.6
20260507121555 63 280 2.0 10.0 0.00 0.00 0.00 73 1011.6
20260507120055 63 299 4.0 13.0 0.00 0.00 0.00 73 1011.3
20260507114600 63 292 5.0 12.0 0.00 0.00 0.00 73 1011.3
20260507113052 64 295 5.0 12.0 0.00 0.00 0.00 72 1011.2
20260507111553 65 304 6.0 14.0 0.00 0.00 0.00 71 1010.9
20260507110057 67 308 4.0 15.0 0.00 0.00 0.00 70 1010.6
20260507104551 68 299 3.0 8.0 0.00 0.00 0.00 68 1010.3
20260507103056 68 345 3.0 9.0 0.00 0.00 0.00 67 1010.2
20260507101555 68 282 4.0 9.0 0.00 0.00 0.00 68 1010.1
20260507100053 68 284 4.0 11.0 0.00 0.00 0.00 66 1010.1
20260507094558 68 236 8.0 15.0 0.00 0.00 0.00 65 1009.9
20260507093050 68 238 6.0 12.0 0.00 0.00 0.00 65 1009.7
20260507091549 68 285 4.0 12.0 0.00 0.00 0.00 66 1009.6
20260507090057 68 253 3.0 11.0 0.00 0.00 0.00 67 1009.4
20260507084557 68 261 5.0 11.0 0.00 0.00 0.00 66 1009.4
20260507083052 68 215 7.0 15.0 0.00 0.00 0.00 63 1009.2
20260507081550 68 216 7.0 14.0 0.00 0.00 0.00 64 1009.1
20260507080101 68 284 5.0 11.0 0.00 0.00 0.00 66 1009.3
20260507074553 67 291 3.0 13.0 0.00 0.00 0.00 68 1008.8
20260507073103 67 272 3.0 15.0 0.00 0.00 0.00 67 1008.8
20260507071553 67 259 8.0 16.0 0.00 0.00 0.00 65 1008.5
20260507070058 67 221 6.0 13.0 0.00 0.00 0.00 64 1008.5
20260507064559 66 242 4.0 12.0 0.00 0.00 0.00 67 1008.2